W5CGC Weather Reports


Display with metric or nautical units.
time (UTC)temp
F
wind
direction
speed
MPH
gust
MPH
rain 1hr
in
rain 24hr
in
rain mn
in
humidity
%
barometer
mb
20181017181512 55 86 0.0 3.0 0.01 0.11 0.03 78 1028.5
20181017180008 55 117 1.0 5.0 0.00 0.10 0.02 75 1028.4
20181017174512 56 47 0.0 5.0 0.00 0.10 0.02 77 1028.8
20181017173014 56 85 1.0 4.0 0.00 0.10 0.02 78 1028.9
20181017171509 56 70 0.0 2.0 0.00 0.10 0.02 81 1028.9
20181017170005 56 88 0.0 2.0 0.00 0.10 0.02 81 1029.1
20181017164502 55 335 0.0 3.0 0.00 0.11 0.02 83 1029.0
20181017163004 54 354 0.0 2.0 0.00 0.11 0.02 84 1029.0
20181017161503 53 71 0.0 4.0 0.00 0.11 0.02 83 1028.8
20181017160231 54 58 0.0 2.0 0.00 0.11 0.02 83 1029.3
20181017154710 54 285 1.0 2.0 0.00 0.11 0.02 79 1029.2
20181017153131 54 61 0.0 3.0 0.00 0.11 0.02 79 1028.9
20181017151618 54 135 0.0 4.0 0.00 0.11 0.02 78 1028.8
20181017150216 55 191 0.0 4.0 0.00 0.11 0.02 79 1028.8
20181017144619 54 326 0.0 3.0 0.00 0.24 0.02 79 1028.6
20181017143117 54 144 0.0 4.0 0.00 0.24 0.02 81 1028.1
20181017141605 54 162 0.0 3.0 0.00 0.24 0.02 81 1028.0
20181017140139 54 13 0.0 3.0 0.00 0.24 0.02 82 1027.9
20181017134659 53 18 0.0 2.0 0.00 0.39 0.02 82 1027.6
20181017133105 53 254 0.0 5.0 0.00 0.39 0.02 83 1027.5
20181017131553 53 96 0.0 2.0 0.00 0.39 0.02 83 1027.4
20181017130053 53 19 0.0 3.0 0.00 0.39 0.02 83 1027.4
20181017124635 53 308 0.0 3.0 0.00 0.62 0.02 83 1027.4
20181017123045 53 333 0.0 2.0 0.00 0.62 0.02 83 1027.1
20181017121544 53 338 0.0 2.0 0.00 0.62 0.02 84 1026.9
20181017120044 53 252 0.0 5.0 0.00 0.62 0.02 83 1026.7
20181017114621 53 22 0.0 2.0 0.00 0.85 0.02 84 1026.7
20181017113035 52 88 0.0 2.0 0.00 0.85 0.02 85 1026.6
20181017111557 52 335 0.0 3.0 0.00 0.85 0.02 84 1026.2
20181017110037 53 39 0.0 2.0 0.00 0.85 0.02 84 1026.4
20181017104557 53 31 1.0 4.0 0.00 1.00 0.02 83 1026.5
20181017103107 53 75 0.0 5.0 0.00 1.00 0.02 83 1026.4
20181017101603 53 333 0.0 4.0 0.00 1.00 0.02 84 1026.4
20181017100032 53 27 1.0 0.0 0.00 0.00 0.02 84 1026.2
20181017094536 53 61 1.0 3.0 0.00 1.09 0.02 84 1026.1
20181017093030 52 283 0.0 4.0 0.00 1.09 0.02 86 1026.1
20181017091528 52 268 0.0 1.0 0.00 1.09 0.02 86 1025.9
20181017090050 52 236 0.0 3.0 0.00 1.09 0.02 86 1025.8
20181017084533 52 105 0.0 2.0 0.00 1.19 0.02 87 1025.8
20181017083039 52 321 1.0 4.0 0.00 1.19 0.02 86 1025.6
20181017081620 52 300 0.0 4.0 0.00 1.19 0.02 88 1025.6
20181017080033 52 311 0.0 3.0 0.00 1.19 0.02 89 1025.9
20181017074526 52 40 0.0 3.0 0.00 1.23 0.02 89 1026.0
20181017073034 52 133 0.0 4.0 0.00 1.23 0.02 91 1025.9
20181017071524 52 30 0.0 4.0 0.01 1.23 0.02 93 1025.9
20181017070051 51 324 0.0 3.0 0.01 1.23 0.02 93 1025.6
20181017064545 51 332 0.0 4.0 0.02 1.28 0.02 93 1025.6
20181017063016 51 243 0.0 1.0 0.02 1.28 0.02 94 1026.2
20181017061513 51 243 0.0 1.0 0.01 1.27 0.01 94 1026.4
20181017060028 52 248 0.0 2.0 0.01 1.27 0.01 93 1026.2
20181017054506 52 64 0.0 1.0 0.00 1.29 0.00 92 1026.1
20181017053006 51 134 0.0 1.0 0.00 1.29 0.00 92 1026.2
20181017051643 51 236 0.0 1.0 0.00 1.29 0.00 92 1026.3
20181017050109 51 119 0.0 1.0 0.00 1.29 0.00 92 1026.3
20181017044715 51 119 0.0 1.0 0.00 1.29 1.29 92 1026.6
20181017043127 51 264 0.0 2.0 0.00 1.29 1.29 92 1026.8
20181017041627 51 336 0.0 1.0 0.00 1.29 1.29 92 1026.7
20181017040224 51 15 0.0 1.0 0.00 1.29 1.29 91 1026.2
20181017034641 51 11 0.0 3.0 0.00 1.29 1.29 92 1026.4
20181017033134 51 272 0.0 1.0 0.00 1.29 1.29 92 1026.5
20181017031606 50 290 0.0 1.0 0.00 1.29 1.29 93 1025.9
20181017030055 50 216 0.0 1.0 0.00 1.29 1.29 94 1026.1
20181017024552 50 164 0.0 0.0 0.00 1.29 1.29 93 1026.1
20181017023045 50 96 0.0 1.0 0.00 1.29 1.29 92 1025.7
20181017021617 50 15 0.0 1.0 0.00 1.29 1.29 93 1025.7
20181017020208 50 10 0.0 2.0 0.00 1.29 1.29 93 1025.6
20181017014614 50 79 0.0 1.0 0.00 1.29 1.29 92 1025.4
20181017013046 50 360 0.0 4.0 0.00 1.29 1.29 92 1025.4
20181017011601 49 8 0.0 2.0 0.00 1.29 1.29 92 1025.6
20181017010113 49 90 0.0 2.0 0.00 1.29 1.29 92 1025.4
20181017004610 49 68 0.0 2.0 0.00 1.29 1.29 92 1025.4
20181017003053 49 117 0.0 6.0 0.00 1.29 1.29 91 1025.3
20181017001526 49 210 0.0 1.0 0.00 1.29 1.29 92 1025.3
20181017000058 49 21 0.0 3.0 0.00 1.29 1.29 93 1025.2
20181016234540 49 204 0.0 2.0 0.00 1.33 1.29 93 1025.2
20181016233105 49 25 0.0 2.0 0.00 1.33 1.29 93 1025.2
20181016231538 49 101 0.0 4.0 0.00 1.33 1.29 94 1025.0
20181016230036 49 314 0.0 2.0 0.00 1.33 1.29 94 1025.0
20181016224530 49 289 0.0 3.0 0.00 1.34 1.29 93 1025.0
20181016223044 49 47 0.0 3.0 0.02 1.34 1.29 94 1024.6
20181016221547 49 32 1.0 8.0 0.04 1.34 1.29 92 1024.5
20181016220041 49 324 1.0 5.0 0.06 1.34 1.29 94 1024.7
20181016214541 49 257 0.0 4.0 0.07 1.37 1.29 93 1024.9
20181016213045 49 315 0.0 6.0 0.05 1.35 1.27 93 1024.7
20181016211519 48 99 0.0 4.0 0.03 1.33 1.25 94 1025.4
20181016210023 49 265 0.0 1.0 0.01 1.31 1.23 93 1026.5
20181016204521 49 236 0.0 3.0 0.00 1.34 1.22 92 1026.1
20181016203027 49 36 0.0 3.0 0.01 1.34 1.22 92 1025.4
20181016201602 49 347 0.0 3.0 0.01 1.34 1.22 94 1024.8
20181016200030 48 302 1.0 7.0 0.01 1.34 1.22 92 1024.4
20181016194509 48 62 1.0 5.0 0.01 1.35 1.22 93 1024.4
20181016193019 48 314 2.0 7.0 0.00 1.34 1.21 91 1024.6
20181016191505 48 3 1.0 6.0 0.00 1.34 1.21 90 1024.9
20181016190139 48 2 0.0 2.0 0.00 1.34 1.21 92 1025.0
20181016184707 47 255 0.0 3.0 0.00 1.36 1.21 93 1025.2
20181016183109 47 100 0.0 4.0 0.00 1.36 1.21 92 1025.4